Location: Gellin
(53.4498°N, 14.3207°E)
Time: 23:35:01
(UTC+00:00)

SL-16 R/B - Pass Details

Date: 03 March 2021
Orbit: 842 x 846 km, 71.0° (Epoch: 12 April)

Event Time Altitude Azimuth Distance (km) Brightness Sun altitude
Rises 17:48:41 0° 203° (SSW) 3,391 5.6 -10.3°
Reaches altitude 10° 17:51:07 10° 201° (SSW) 2,461 4.9 -10.7°
Maximum altitude 17:56:45 73° 118° (ESE) 885 2.2 -11.5°
Drops below altitude 10° 18:02:25 10° 35° (NE) 2,479 4.4 -12.4°
Sets 18:04:53 0° 33° (NNE) 3,418 5.1 -12.7°
